RH
67 67 66 65 64 62 59 60 60 57 56 56 54 53 51 50 50 49 48 47 46 45 43 42 40 38 37 35 33 31 30 28 27 26 25 24 27 29
68 68 68 67 66 66 65 64 62 61 61 60 58 55 54 53 52 51 50 49 48 47 46 46 45 43 42 40 39 38 37 35 33 31 30 29 29 29
65 65 65 65 66 66 65 64 62 63 63 63 61 60 59 58 57 57 56 55 54 52 51 50 49 48 47 46 44 43 42 41 40 38 36 36 35 35
61 60 60 59 58 59 61 62 62 61 62 64 66 65 66 66 66 65 65 65 65 66 65 64 63 61 59 59 58 57 55 54 53 51 48 46 44 42
73 74 74 75 75 76 76 74 74 73 74 76 76 75 74 74 72 73 73 73 72 72 72 71 71 70 69 68 67 66 65 64 63 62 60 59 58 57
86 87 87 87 86 84 83 82 81 79 77 76 76 75 75 75 74 73 73 72 71 70 69 69 67 67 65 64 64 64 63 62 62 61 61 60 59 58
81 84 86 87 86 86 85 85 84 84 82 81 80 78 77 77 76 74 72 71 70 69 68 68 65 63 61 59 58 56 56 55 53 53 53 53 54 54
74 73 74 76 78 80 81 81 81 80 78 76 75 75 74 72 71 71 69 67 66 65 65 65 61 61 60 57 56 57 55 54 53 52 50 50 50 49
70 71 73 75 77 78 79 78 77 76 74 72 69 67 66 63 59 56 54 52 51 50 49 47 49 49 49 49 51 55 56 53 49 48 46 46 46 47
63 65 67 69 70 70 70 69 67 65 63 61 60 58 56 54 52 51 49 46 44 43 43 42 43 42 42 41 45 47 48 48 45 41 39 39 39 38
59 60 62 62 63 63 63 63 62 62 60 59 57 55 52 50 50 50 45 45 43 41 41 42 40 38 36 35 35 36 35 35 34 33 35 33 33 33
57 57 59 60 60 58 57 56 56 54 53 52 50 49 46 41 37 33 30 29 29 28 27 29 32 33 33 30 28 28 30 31 31 30 29 28 27 26
57 59 59 59 59 57 56 54 53 51 51 45 36 33 32 33 34 34 34 34 33 32 30 33 32 35 37 36 35 35 35 34 35 34 33 31 29 28
59 60 60 59 59 57 53 46 37 35 31 30 27 27 28 30 32 35 39 41 41 41 42 40 40 41 40 40 39 38 40 42 44 41 40 38 35 33
58 60 60 58 49 36 27 24 25 26 27 27 29 31 34 36 38 37 39 42 43 44 45 44 45 46 48 44 43 46 46 46 50 50 46 44 42 39
54 48 38 30 25 24 30 32 35 37 37 37 37 36 35 34 34 35 35 34 33 32 34 38 39 42 44 46 46 45 47 48 48 48 44 41 42 42
34 29 27 30 33 36 37 37 36 35 35 34 33 33 32 32 32 33 35 36 36 35 33 33 36 39 41 47 49 49 48 46 47 48 47 45 44 43
34 36 37 37 37 39 40 39 36 35 34 33 32 31 31 31 32 32 33 33 36 36 37 39 40 40 40 39 44 44 46 52 52 56 55 54 51 49
44 43 40 40 40 40 40 39 38 37 36 34 34 33 32 32 33 33 33 33 34 35 35 37 40 44 45 47 42 47 59 59 61 63 61 64 63 55
45 44 44 44 45 46 46 45 43 41 39 37 36 36 36 36 36 36 36 36 36 36 36 40 44 49 55 57 56 50 55 63 70 67 66 65 62 59
49 49 50 52 53 53 51 49 47 45 43 41 40 40 40 40 39 39 39 41 43 43 43 42 45 54 60 62 58 55 65 74 79 80 73 76 71 65
56 56 58 59 60 59 56 53 52 50 48 46 45 45 45 45 45 45 44 43 45 47 46 47 51 56 60 66 63 63 63 69 77 78 79 85 87 76
58 60 61 62 61 60 59 57 55 53 51 50 49 50 50 50 50 50 49 51 53 52 55 54 59 63 66 71 74 71 71 73 79 77 76 89 93 95